Погода Богородское

Погода Богородское : погода сейчас, прогноз погоды и архив. Всё, что Вы хотите узнать о погоде Богородское!

Поиск расширенной информации на нашем сайте:

Другие новости

Новости СМИ2

Главная страница сайта

Новости сайта

03.07.2017

Напоминаем, что на нашем специализированном сайте Метеоцентр.Азия вы можете получить высокодетализированные автоматические прогнозы погоды по пунктам России, СНГ и мира в авиационном формате (включающие направление и скорость ветра, видимость, явления погоды, количество и форму облачности, нижнюю и верхнюю границу облачности).


Погода Богородское - сегодня

Время (UTC), дата Ветер
(°,м/с) 
Видим.   Явления Облачность Т
(°С)
Тd
(°С)
f(%) Тe
(°С)
Pmin
(гПа)
dP
(гПа)
Po
(мм)
O2
(г/м3)
Тmin Tmax R s Состояние
почвы
12 15.04.18 230 (ЮЗ) 20000 м    ясно 
-1.5 -7.5 64 -1  1008.1  0.1  753  306           
15 15.04.18 100 (В) 20000 м    ясно 
-3.8 -8.8 68 -3  1007.4  -0.7  752  308           
18 15.04.18 020 (С) 20000 м    ясно 
-6.2 -9 81 -6  1006.1  -1.4  751  311           
00 16.04.18 170 (Ю) 20000 м    ясно 
-0.3 -7.6 58 -1  1005.5  -0.5  751  304           
03 16.04.18 180 (Ю) 20000 м    ясно 
+4.5 -5.1 50 +3  1003.6  -1.8  749  298           
06 16.04.18 180 (Ю) 20000 м    ясно 
+8.1 -7.3 33 +7  1001.9  -1.6  748  294           
09 16.04.18 190 (Ю) 20000 м    ясно 
+7.9 -8.4 30 +8  1001.7  -0.2  748  294    +8.6       
12 16.04.18 тихо ()   20000 м    ясно 
+0.7 -6.8 57 +1  1003.3  1.4  749  302           
15 16.04.18 010 (С) 20000 м    ясно 
-2.2 -6.9 70 -3  1003.8  0.4  750  305           
18 16.04.18 030 (СВ) 20000 м    ясно 
-3.7 -7.6 74 -3  1004.4  0.6  750  307           
00 17.04.18 160 (Ю) 20000 м    4/0 верхняя 
[Cs]
+3.7 -5 53 +3  1005.1  -0.5  751  299           
03 17.04.18 190 (Ю) 20000 м    9/0 средняя, верхняя 
[As trans|Cs]
+9.4 -4 39 +8  1003.8  -1.2  750  292           
06 17.04.18 190 (Ю) 20000 м    8/0 средняя, верхняя 
[As trans|Cs]
+10.5 -2.8 39 +10  1001.8  -1.9  748  291           
12 17.04.18 150 (ЮВ) 20000 м    ясно 
+7.3 -4.6 43 +7  1002.5  0.9  749  294           
15 17.04.18 160 (Ю) 20000 м    ясно 
+1.9 -3.9 65 +3  1003.1  0.5  749  300           
18 17.04.18 080 (В) 20000 м    ясно 
+0 -4.1 74 +1  1003.6  0.4  749  302           
00 18.04.18 010 (С) 20000 м    10/0 средняя 
[Ac As]
+4.7 -3.7 54 +3  1007.6  2.4  752  298           
03 18.04.18 360 (С) 20000 м    10/1 600 м средняя, верхняя 
[Sc|Ac lent|Cs]
+6.2 -1.6 57 +5  1008.4  0.8  753  297           
06 18.04.18 360 (С) 20000 м    9/1 600 м средняя 
[Sc|Ac lent]
+7.3 -6.2 38 +6  1008.3  0.1  753  296           
12 18.04.18 070 (В) 20000 м    ясно 
+3.5 -6.6 48 +3  1010.8  1.6  755  301           
15 18.04.18 040 (СВ) 20000 м    ясно 
-1.2 -6.9 65 -1  1011.9  1.1  756  307           
18 18.04.18 тихо ()   20000 м    ясно 
-4.3 -7.5 78 -4  1012.4  0.4  756  310           
00 19.04.18 180 (Ю) 20000 м    ясно 
+4.1 -8.8 38 +5  1012.3  -0.4  756  301           
03 19.04.18 170 (Ю) 20000 м    ясно 
+9.6 -12.2 20 +10  1011.1  -1.2  755  295           
06 19.04.18 170 (Ю) 20000 м    4/0 средняя, верхняя 
[Ac lent|Ci fib]
+10.8 -10.8 21 +11  1008.9  -2.1  754  293           
Время (UTC), дата Ветер
(°,м/с) 
Видим.   Явления Облачность Т
(°С)
Тd
(°С)
f(%) Тe
(°С)
Pmin
(гПа)
dP
(гПа)
Po
(мм)
O2
(г/м3)
Тmin Tmax R s Состояние
почвы

Для получения пояснительной информации подведите курсор к названию столбца.

ПОГОДА Богородское - архив

Всё, что Вы хотите узнать о погоде Богородское - удобно и подробно!

Выберите нужную дату (начиная с 1 января 2015* года) и нажмите кнопку "Найти".
Будут отображены архивные сводки погоды по пункту Богородское, начиная с указанной даты.


Отображать данные в формате CSV (для использования в таблицах Excel)


Внимание! Наш архив погоды предназначен исключительно для личного некоммерческого использования в познавательных целях. Если Вам необходимы официальные справки о состоянии погоды (для производственных, юридических, коммерческих и т.п. целей), обращайтесь в органы Росгидромета.

*Примечание: данная дата относится к архиву по метеостанциям СССР (Россия, СНГ, Балтия).
Архив по метеостанциям Зарубежной Европы и Азии (кроме Китая) хранится 10 дней, по другим регионам земного шара (Китай, Африка, Америка, Австралия, Океания) - 1 день.

Богородское - район местоположения метеостанции


Название, широта, долгота, высота метеостанции:
Богородское 52.4°ш. 140.5°д. 35 м над ур. моря [Российская Федерация]

Дополнительная информация

В oтличие oт бoльшинства пoгoдных сайтoв мы публикуем пoдрoбную метеoинфoрмацию в детальнoм прoфессиoнальнoм фoрмате.

Характеристики температуры и влажнoсти вoздуха измеряются на высoте 2 м в тени вдали oт зданий и деревьев.
Скoрoсть ветра измеряется на высoте 10 м (на урoвне рoста челoвека скoрoсть ветра ниже в 1.5-2 раза). Если метеoстанция нахoдится в гoрoде или в лесу, тo скoрoсть ветра занижена на 2-4 м/с пo сравнению с oткрытым местoм. Скoрoсть ветра над акватoриями крупных рек и oзёр, а также на вершинах хoлмoв на 2-5 м/с выше, чем в oбычных услoвиях.
Атмoсфернoе давление в разных тoчках местнoсти мoжет значительнo oтличаться oт давления на метеoстанции, в зависимoсти oт услoвий рельефа (при пoдъёме на 10 м давление пoнижается примернo на 1 мм рт.ст.).